Hourly Data Report for October 06, 2014

All times are specified in Local Standard Time (LST). Add 1 hour to adjust for Daylight Saving Time where and when it is observed.

POND INLET A
NUNAVUT

72°41'22.000" N
77°58'08.000" W
61.60 m
2403206
71095
YIO

Download Data

Hourly Data (October 2014)
Hourly Data Report for October 6, 2014
Temp Definition
°C
Dew Point Temp Definition
°C
Rel Hum Definition
%
Wind Dir Definition
10's deg

Wind Spd Definition
km/h
Visibility Definition
km
Stn Press Definition
kPa
Hmdx Definition


Wind Chill Definition


Weather Definition


TIME
00:00 Legend Double Dagger -10.2 -11.6 90 17 13 16.1 102.28   -16 LegendNANA
01:00 Legend Double Dagger -10.7 -12.8 85 20 17 16.1 102.34   -18 LegendNANA
02:00 Legend Double Dagger -9.2 -11.0 87 20 13 16.1 102.37   -15 LegendNANA
03:00 Legend Double Dagger -9.3 -11.0 88 22 9 16.1 102.37   -14 LegendNANA
04:00 Legend Double Dagger -8.9 -10.8 86 21 8 16.1 102.33   -13 LegendNANA
05:00 Legend Double Dagger -10.7 -12.6 86 18 13 16.1 102.31   -17 LegendNANA
06:00 Legend Double Dagger -9.6 -10.9 90 16 13 16.1 102.33   -16 LegendNANA
07:00 Legend Double Dagger -9.0 -10.8 87 15 11 16.1 102.33   -14 LegendNANA
08:00 Legend Double Dagger -6.2 -7.8 88 18 13 16.1 102.32   -12 LegendNANA
09:00 Legend Double Dagger -4.4 -8.1 76 LegendMM 9 16.1 102.32   -8 LegendNANA
10:00 Legend Double Dagger -3.6 -8.4 70 16 5 16.1 102.32   -6 LegendNANA
11:00 Legend Double Dagger -2.8 -7.6 70 7 15 16.1 102.30   -8 LegendNANA
12:00 Legend Double Dagger -1.7 -6.8 68 7 9 16.1 102.32   -5 LegendNANA
13:00 Legend Double Dagger -4.1 -9.0 69 LegendMM 4 16.1 102.35   -6 LegendNANA
14:00 Legend Double Dagger -6.1 -10.2 73 15 13 16.1 102.37   -11 LegendNANA
15:00 Legend Double Dagger -5.9 -9.4 76 15 9 16.1 102.39   -10 LegendNANA
16:00 Legend Double Dagger -4.8 -8.7 74   0 16.1 102.39     LegendNANA
17:00 Legend Double Dagger -6.9 -9.9 79 13 15 16.1 102.40   -13 LegendNANA
18:00 Legend Double Dagger -4.6 -9.0 72 LegendMM 4 16.1 102.43   -6 LegendNANA
19:00 Legend Double Dagger -2.4 -7.1 70 6 24 16.1 102.39   -9 LegendNANA
20:00 Legend Double Dagger -2.1 -7.1 69 7 26 16.1 102.38   -9 LegendNANA
21:00 Legend Double Dagger -2.4 -8.0 66 LegendMM 5 16.1 102.43   -4 LegendNANA
22:00 Legend Double Dagger -5.1 -9.2 73 18 5 16.1 102.45   -7 LegendNANA
23:00 Legend Double Dagger -4.9 -8.9 74 LegendMM 9 16.1 102.45   -9 LegendNANA

Notes on Data Quality.

Legend

  • E = Estimated
  • M = Missing
  • NA = Not Available
  • ‡ = Partner data that is not subject to review by the National Climate Archives
Date modified: